Wind_Speed
12 12 12 12 12 12 11 11 11 10 10 10 9 9 9 9 9 9 8 8 8 7 7 7 7 6 6 6 6 6 6 6 5 6 5 5 5 5 5 5 5 5 4
15 14 14 14 14 14 13 13 13 12 12 12 12 11 11 10 10 10 10 9 9 8 8 8 8 7 7 7 6 6 7 7 6 6 6 5 5 5 5 5 5 5 5
16 15 15 15 15 15 15 15 14 14 14 14 14 14 13 12 12 11 11 10 10 9 9 9 8 8 8 7 8 8 7 7 7 7 7 6 6 6 5 5 5 5 5
17 17 16 16 16 17 17 17 16 16 16 16 16 16 15 14 14 13 13 12 12 11 10 10 10 9 9 8 8 9 8 8 8 8 8 7 7 7 6 6 6 6 6
18 18 18 18 18 18 18 18 18 18 17 17 17 17 17 16 16 15 15 14 14 13 12 12 12 11 10 10 9 9 9 9 9 9 9 9 8 8 7 7 7 6 6
20 20 20 20 20 19 20 20 20 19 19 19 19 19 18 18 18 17 17 16 15 15 14 14 13 12 12 11 11 10 10 10 10 10 10 10 10 10 9 9 8 8 8
21 21 21 21 20 20 21 21 20 20 20 20 20 20 20 20 19 19 19 18 18 17 16 16 15 15 14 13 13 12 12 12 12 11 11 11 11 11 11 11 10 10 9
21 22 22 22 21 21 21 21 21 21 22 22 21 21 21 21 20 20 20 20 20 19 19 18 17 17 16 15 15 14 14 14 13 13 13 13 13 13 13 13 13 12 12
23 23 23 23 23 23 23 23 23 23 23 23 23 23 23 22 22 22 22 21 21 21 20 20 19 19 19 18 17 16 16 15 15 15 15 15 15 15 15 15 15 14 14
24 24 24 25 24 25 24 24 24 24 24 25 25 25 25 24 23 23 23 23 23 23 22 22 22 21 21 20 19 18 18 18 17 17 17 17 17 17 17 17 17 17 16
26 26 26 26 26 26 26 26 26 26 26 26 26 26 26 26 26 25 25 24 24 24 24 24 23 23 23 22 22 21 20 20 20 19 19 19 19 19 19 19 19 19 19
27 28 28 28 28 28 28 28 27 27 27 27 27 27 27 27 27 27 26 26 26 25 25 25 25 25 25 24 24 24 23 23 22 21 21 21 21 22 22 22 22 21 21
30 29 29 30 30 30 29 29 29 29 29 28 28 28 28 29 28 28 28 28 28 27 26 27 27 27 26 26 26 26 25 25 24 24 23 23 23 24 24 24 24 24 23
31 31 31 31 31 31 31 31 31 30 30 30 30 30 30 30 30 30 30 29 29 29 28 28 28 28 28 27 27 27 27 27 26 26 26 26 26 25 26 26 26 26 26
32 32 33 33 33 33 33 33 33 32 32 31 31 31 31 31 30 30 31 31 31 30 30 30 30 30 29 29 28 28 28 28 28 28 28 28 28 28 28 28 28 28 27
34 34 35 35 35 35 35 35 35 35 34 34 33 32 32 32 32 32 31 32 32 32 31 31 31 31 31 31 30 30 30 29 29 30 30 29 29 29 29 29 29 29 29
36 36 37 37 37 37 37 37 37 36 36 36 35 35 35 34 34 33 33 33 33 33 33 33 32 32 32 32 32 31 31 31 31 30 31 31 30 30 30 30 30 30 30
37 38 38 39 39 39 38 39 38 38 38 38 37 37 37 36 36 35 34 34 34 34 34 34 34 34 33 33 33 33 32 32 32 32 32 31 31 32 32 32 32 31 32
38 39 39 39 40 40 40 40 40 39 39 38 39 38 38 38 37 36 36 35 35 35 35 35 35 35 35 34 34 34 34 34 33 33 33 32 33 32 33 33 33 33 33
38 39 40 40 40 40 40 41 41 41 41 40 39 39 39 39 39 38 37 36 36 36 36 36 36 36 36 36 35 35 35 36 36 35 34 34 33 33 34 34 34 34 34
39 39 40 40 40 40 41 41 41 42 42 43 42 41 40 41 41 40 40 39 38 38 37 37 37 38 37 37 37 37 36 36 36 36 36 36 35 35 34 35 35 36 36
40 40 40 40 41 41 41 41 42 43 43 44 44 43 43 43 42 41 40 40 39 40 39 39 39 39 39 38 37 37 37 37 37 37 37 37 37 37 36 36 36 36 37
41 42 42 42 42 43 43 43 43 44 44 44 44 44 44 44 44 44 43 41 41 41 41 41 41 41 40 40 39 39 39 38 37 38 38 39 39 39 39 37 37 38 39
41 42 43 43 44 44 44 45 45 46 46 45 46 46 46 46 46 45 45 44 43 43 42 42 42 42 42 42 41 41 41 40 40 39 38 39 40 40 39 39 38 39 40
41 42 43 44 44 45 45 45 45 46 47 47 47 47 47 47 47 46 46 45 45 44 43 43 43 43 43 43 43 42 42 42 41 40 39 39 40 40 39 40 40 41 41
41 42 42 43 43 44 45 46 45 45 46 48 48 48 48 48 48 47 47 46 46 46 45 45 44 44 43 43 43 43 43 43 42 42 41 41 40 40 40 40 41 42 42
Wind_Direction
251 249 248 247 244 241 241 241 241 240 239 239 239 239 238 238 237 236 235 234 233 233 230 225 220 220 222 224 220 214 211 207 205 201 199 201 199 198 195 191 189 188 186
253 251 249 248 247 243 241 241 242 242 241 241 241 240 239 237 237 236 236 236 235 233 233 231 229 227 225 226 225 222 220 216 212 210 209 210 206 204 203 202 205 205 201
254 252 250 247 247 245 242 241 240 242 243 243 243 242 241 239 238 238 238 238 236 234 233 233 235 235 233 232 231 230 231 227 221 218 218 217 214 211 210 211 215 216 215
253 251 250 248 247 244 243 243 243 243 244 244 244 243 243 242 241 240 240 239 238 237 236 237 239 238 238 237 236 236 235 233 229 225 223 221 219 220 220 222 224 223 225
251 250 249 248 247 246 245 244 244 243 243 243 244 243 243 243 243 242 241 241 240 239 238 239 239 240 239 239 239 238 237 236 235 232 229 227 228 229 227 229 231 230 229
253 251 250 249 248 247 245 245 245 244 243 243 243 243 245 245 244 243 242 242 242 241 241 240 239 239 240 240 240 239 238 238 240 237 234 231 233 235 236 237 238 237 237
254 252 251 250 249 247 246 245 244 244 243 244 244 244 245 246 245 244 243 243 242 242 242 241 241 241 241 241 241 240 240 241 242 241 239 237 238 239 240 241 241 242 243
254 253 252 250 248 247 247 246 245 244 244 244 244 244 246 245 245 246 245 244 244 243 242 242 242 243 243 242 243 243 244 244 244 245 242 240 242 243 244 244 245 245 247
254 252 251 250 248 248 248 248 246 245 245 245 244 245 246 245 245 246 246 245 245 245 244 244 243 244 244 244 245 245 246 246 246 246 245 245 247 247 248 249 249 249 250
254 252 251 250 250 250 250 249 248 248 248 247 245 246 246 246 246 247 247 247 246 246 246 246 245 245 245 246 246 247 247 247 247 248 248 249 249 250 250 251 253 252 253
255 253 251 250 250 250 250 249 249 250 250 250 248 247 247 247 247 248 248 249 248 247 247 247 247 246 246 247 247 248 248 249 249 250 250 251 251 251 252 253 254 254 254
254 253 252 250 250 249 249 249 249 250 250 250 250 249 248 247 247 248 248 248 249 249 248 248 248 248 248 248 248 249 249 251 251 252 252 252 253 253 253 254 256 256 255
254 253 252 251 250 249 249 249 249 249 249 250 250 250 249 249 248 248 248 248 249 249 249 248 248 249 250 250 249 250 250 251 253 253 253 254 254 255 255 255 256 257 256
255 254 253 253 251 248 248 248 248 248 249 250 250 250 250 250 249 248 248 249 249 249 249 249 249 250 250 251 250 251 251 251 252 254 254 255 255 256 256 257 257 257 257
256 256 255 254 252 250 249 248 248 249 249 250 250 249 249 250 250 249 249 249 249 249 249 249 249 250 250 251 251 252 252 253 253 253 254 255 256 256 257 258 258 258 259
256 255 254 252 252 251 250 250 249 249 249 249 250 250 250 250 251 250 250 250 250 250 250 250 250 250 251 251 252 253 253 254 254 254 254 255 256 257 257 257 259 260 259
256 255 254 253 252 252 251 250 250 250 249 249 249 250 250 251 251 251 251 250 251 251 251 251 250 250 250 251 252 252 253 254 255 255 255 255 256 257 258 258 258 259 259
257 256 255 253 253 252 252 251 249 249 249 248 249 249 250 250 251 251 251 251 252 252 252 251 251 251 251 251 252 252 253 254 255 255 256 256 257 258 258 258 258 259 259
257 256 255 254 253 252 252 251 250 249 249 248 249 249 249 250 250 251 252 252 252 252 252 252 252 252 251 252 252 253 253 254 255 255 255 257 258 258 258 258 258 259 259
257 255 254 254 253 252 252 250 249 249 248 248 248 248 248 249 250 251 251 252 253 253 252 252 252 252 252 252 253 253 254 255 255 255 256 256 258 258 258 258 259 260 260
257 256 255 253 253 252 251 250 249 248 247 247 247 247 248 248 249 249 251 252 253 253 252 252 252 252 252 252 252 253 254 255 255 257 256 257 258 258 258 258 258 259 260
258 257 256 254 253 252 252 251 250 248 248 247 247 247 247 248 248 248 249 251 252 253 252 252 252 253 253 252 252 253 254 255 256 255 257 258 258 258 259 259 260 260 260
258 257 255 254 252 252 252 251 250 249 249 248 247 247 247 248 248 248 249 250 251 252 252 253 253 253 253 253 253 253 254 256 256 256 257 257 258 258 259 260 261 262 261
257 256 255 255 253 253 253 252 251 250 249 248 247 246 247 248 248 248 249 250 250 251 252 252 253 253 254 254 254 255 255 257 257 257 258 258 258 259 260 260 262 263 263
256 254 255 254 253 253 252 252 251 250 249 247 247 246 247 248 248 248 249 249 250 250 251 251 252 253 254 254 254 255 256 256 257 258 259 259 259 259 260 261 263 263 264
257 256 254 254 253 253 251 252 251 251 249 247 247 247 247 247 248 248 248 249 249 249 250 251 252 253 254 254 254 255 256 257 258 259 260 259 260 261 261 263 264 265 265
Height
5847 5847 5848 5848 5849 5850 5850 5851 5852 5852 5853 5854 5854 5855 5855 5856 5856 5857 5857 5857 5858 5858 5859 5859 5859 5860 5860 5861 5861 5862 5862 5862 5863 5863 5864 5864 5864 5865 5865 5865 5866 5866 5866
5845 5845 5846 5846 5847 5847 5848 5849 5850 5851 5851 5852 5853 5853 5854 5854 5855 5855 5856 5856 5857 5857 5858 5858 5859 5859 5859 5860 5860 5861 5861 5862 5862 5863 5863 5864 5864 5864 5865 5865 5865 5865 5866
5842 5842 5843 5844 5844 5845 5846 5847 5848 5848 5849 5850 5851 5851 5852 5853 5853 5854 5854 5855 5855 5856 5856 5857 5857 5858 5858 5859 5859 5860 5860 5861 5861 5862 5862 5863 5863 5864 5864 5864 5865 5865 5865
5839 5839 5840 5841 5841 5842 5843 5844 5845 5846 5847 5848 5848 5849 5850 5850 5851 5852 5852 5853 5854 5854 5855 5855 5856 5857 5857 5858 5858 5859 5859 5860 5860 5861 5861 5862 5863 5863 5863 5864 5864 5864 5864
5835 5836 5836 5837 5838 5839 5840 5841 5842 5843 5844 5845 5845 5846 5847 5848 5849 5849 5850 5851 5852 5852 5853 5853 5854 5855 5856 5856 5857 5857 5858 5858 5859 5859 5860 5861 5861 5862 5862 5863 5863 5863 5863
5831 5832 5832 5833 5834 5835 5836 5837 5838 5839 5840 5841 5842 5843 5844 5845 5846 5847 5847 5848 5849 5850 5850 5851 5852 5853 5854 5854 5855 5856 5856 5857 5858 5858 5859 5859 5860 5861 5861 5861 5862 5862 5862
5827 5828 5829 5829 5830 5831 5832 5833 5834 5835 5837 5838 5839 5840 5841 5841 5842 5843 5844 5845 5846 5847 5848 5849 5850 5851 5851 5852 5853 5854 5854 5855 5856 5856 5857 5858 5858 5859 5859 5859 5860 5860 5861
5822 5823 5824 5825 5826 5827 5828 5829 5830 5831 5833 5834 5835 5836 5837 5838 5839 5840 5841 5842 5843 5844 5845 5846 5847 5848 5849 5849 5850 5851 5852 5853 5853 5854 5855 5855 5856 5856 5857 5857 5858 5858 5859
5817 5818 5819 5820 5821 5822 5823 5824 5825 5827 5828 5829 5830 5831 5833 5834 5835 5836 5837 5838 5839 5840 5841 5842 5843 5844 5845 5846 5847 5848 5849 5850 5851 5851 5852 5853 5853 5854 5854 5855 5855 5856 5856
5812 5813 5814 5815 5816 5817 5818 5819 5821 5822 5823 5824 5825 5827 5828 5829 5830 5831 5833 5834 5835 5836 5837 5838 5839 5840 5841 5843 5844 5845 5846 5847 5848 5848 5849 5850 5851 5851 5851 5852 5852 5853 5854
5806 5807 5808 5809 5810 5812 5813 5814 5815 5816 5818 5819 5820 5821 5823 5824 5825 5827 5828 5829 5830 5832 5833 5834 5835 5836 5837 5838 5840 5841 5842 5843 5844 5845 5846 5846 5847 5848 5848 5849 5849 5850 5850
5800 5801 5802 5803 5804 5805 5807 5808 5809 5811 5812 5813 5815 5816 5817 5818 5820 5821 5823 5824 5825 5826 5828 5829 5830 5831 5833 5834 5835 5837 5838 5839 5840 5841 5842 5842 5843 5844 5844 5845 5845 5846 5846
5793 5794 5795 5796 5797 5798 5800 5801 5803 5804 5806 5807 5808 5810 5811 5812 5814 5815 5817 5818 5820 5821 5822 5824 5825 5826 5827 5829 5830 5831 5833 5834 5835 5836 5837 5838 5838 5839 5840 5840 5841 5841 5842
5785 5786 5787 5788 5790 5791 5792 5794 5796 5797 5799 5800 5802 5803 5805 5806 5808 5809 5810 5812 5814 5815 5816 5818 5819 5820 5822 5823 5825 5826 5827 5828 5830 5831 5832 5833 5833 5834 5834 5835 5835 5836 5837
5778 5778 5780 5781 5782 5783 5785 5786 5788 5790 5792 5793 5795 5796 5798 5799 5801 5802 5804 5805 5807 5808 5810 5811 5813 5814 5816 5817 5819 5820 5821 5823 5824 5825 5826 5827 5828 5828 5829 5829 5830 5831 5831
5769 5770 5771 5772 5773 5775 5776 5778 5780 5782 5784 5785 5787 5789 5790 5792 5794 5795 5797 5798 5800 5801 5803 5805 5806 5808 5809 5811 5812 5814 5815 5816 5817 5818 5819 5820 5821 5822 5823 5823 5824 5825 5825
5760 5760 5762 5763 5764 5766 5767 5769 5771 5773 5775 5777 5779 5781 5783 5784 5786 5788 5789 5791 5792 5794 5796 5798 5799 5801 5802 5804 5805 5807 5808 5809 5811 5812 5813 5814 5815 5816 5816 5817 5818 5818 5819
5749 5750 5752 5753 5754 5756 5758 5760 5761 5764 5766 5768 5770 5772 5774 5776 5778 5780 5782 5783 5785 5786 5788 5790 5792 5793 5795 5796 5798 5799 5801 5802 5803 5805 5806 5807 5808 5809 5810 5810 5811 5812 5812
5739 5740 5741 5742 5744 5746 5748 5749 5751 5754 5756 5758 5760 5763 5765 5767 5769 5772 5773 5775 5777 5778 5780 5782 5784 5785 5787 5789 5790 5792 5793 5794 5796 5797 5799 5800 5801 5802 5802 5803 5804 5805 5805
5728 5729 5730 5732 5733 5735 5737 5739 5741 5743 5746 5748 5750 5753 5755 5758 5760 5762 5765 5767 5768 5770 5772 5773 5775 5777 5779 5781 5782 5783 5785 5787 5788 5789 5791 5792 5793 5794 5795 5795 5796 5797 5798
5717 5718 5719 5721 5722 5724 5726 5728 5730 5733 5735 5737 5740 5743 5745 5747 5750 5753 5755 5757 5759 5761 5763 5765 5766 5768 5770 5772 5774 5775 5777 5778 5780 5781 5783 5784 5785 5786 5787 5787 5788 5789 5790
5706 5707 5709 5710 5711 5713 5715 5717 5719 5721 5724 5726 5729 5732 5735 5737 5740 5742 5745 5748 5750 5752 5753 5755 5757 5759 5761 5763 5765 5766 5768 5770 5771 5773 5774 5775 5776 5777 5778 5779 5780 5781 5781
5695 5696 5697 5699 5700 5701 5703 5705 5707 5709 5712 5715 5718 5721 5723 5726 5729 5732 5735 5737 5739 5742 5744 5746 5748 5749 5751 5753 5755 5758 5759 5761 5762 5764 5765 5766 5767 5769 5769 5770 5771 5771 5772
5683 5684 5685 5686 5688 5689 5691 5693 5695 5697 5700 5703 5705 5708 5711 5714 5718 5721 5724 5726 5729 5731 5733 5735 5738 5740 5741 5743 5745 5748 5750 5752 5753 5755 5756 5757 5758 5759 5760 5761 5762 5762 5763
5670 5671 5672 5674 5675 5677 5678 5680 5682 5684 5686 5689 5692 5696 5699 5702 5705 5709 5712 5715 5718 5720 5723 5725 5727 5729 5731 5733 5735 5737 5739 5741 5743 5745 5746 5747 5748 5749 5750 5751 5752 5753 5753
5658 5658 5660 5661 5662 5663 5665 5667 5669 5671 5673 5676 5679 5683 5687 5690 5693 5697 5700 5703 5706 5709 5711 5714 5716 5718 5720 5722 5724 5726 5728 5731 5733 5734 5736 5737 5738 5739 5740 5741 5742 5742 5743